Hourly Data Report for October 30, 2015

All times are specified in Local Standard Time (LST). Add 1 hour to adjust for Daylight Saving Time where and when it is observed.

BAKER LAKE A
NUNAVUT

64°17'56.000" N
96°04'40.000" W
18.60 m
2300503
71926
YBK

Download Data

Hourly Data (October 2015)
Hourly Data Report for October 30, 2015
Temp Definition
°C
Dew Point Temp Definition
°C
Rel Hum Definition
%
Wind Dir Definition
10's deg

Wind Spd Definition
km/h
Visibility Definition
km
Stn Press Definition
kPa
Hmdx Definition


Wind Chill Definition


Weather Definition


TIME
00:00 Legend Double Dagger -19.5 -22.1 80 34 18 24.1 100.90   -29 Mainly Clear
01:00 Legend Double Dagger -19.9 -22.4 81 34 13 24.1 100.91   -28 LegendNANA
02:00 Legend Double Dagger -20.2 -23.0 79 35 15 24.1 100.87   -29 LegendNANA
03:00 Legend Double Dagger -20.2 -23.1 78 36 10 24.1 100.84   -27 Mainly Clear
04:00 Legend Double Dagger -20.6 -23.5 78 1 11 24.1 100.85   -28 LegendNANA
05:00 Legend Double Dagger -20.7 -23.6 78 34 7 24.1 100.84   -26 LegendNANA
06:00 Legend Double Dagger -20.8 -23.7 78 34 12 24.1 100.84   -29 Mainly Clear
07:00 Legend Double Dagger -20.8 -23.5 79 34 12 32.2 100.83   -29 LegendNANA
08:00 Legend Double Dagger -21.0 -23.6 80 35 15 32.2 100.83   -30 LegendNANA
09:00 Legend Double Dagger -19.6 -22.1 81 2 7 32.2 100.83   -25 Mostly Cloudy
10:00 Legend Double Dagger -16.2 -18.3 84 9 4 24.1 100.81   -19 LegendNANA
11:00 Legend Double Dagger -15.2 -17.3 84 6 4 24.1 100.80   -18 Snow
12:00 Legend Double Dagger -12.6 -14.8 84 13 19 8.1 100.78   -21 Snow
13:00 Legend Double Dagger -12.2 -14.4 84 13 23 16.1 100.77   -21 Snow
14:00 Legend Double Dagger -12.1 -14.4 83 13 24 24.1 100.78   -21 Snow
15:00 Legend Double Dagger -11.5 -13.7 84 11 20 32.2 100.76   -20 Snow
16:00 Legend Double Dagger -11.9 -13.9 85 16 15 32.2 100.78   -19 Snow
17:00 Legend Double Dagger -12.3 -14.3 85 13 16 32.2 100.78   -20 Snow
18:00 Legend Double Dagger -14.8 -16.5 87 13 12 24.1 100.81   -22 Snow
19:00 Legend Double Dagger -16.8 -18.5 87 9 4 24.1 100.82   -20 LegendNANA
20:00 Legend Double Dagger -16.8 -18.8 85 3 7 24.1 100.81   -22 LegendNANA
21:00 Legend Double Dagger -14.0 -16.0 85 34 5 24.1 100.78   -17 Mostly Cloudy
22:00 Legend Double Dagger -10.2 -12.0 87 9 21 24.1 100.78   -18 Snow
23:00 Legend Double Dagger -10.5 -12.1 88 9 18 24.1 100.81   -18 Snow

Notes on Data Quality.

Legend

  • E = Estimated
  • M = Missing
  • NA = Not Available
  • ‡ = Partner data that is not subject to review by the National Climate Archives
Date modified: